Time,TemperatureF,DewpointF,PressureIn,WindDirection,WindDirectionDegrees,WindSpeedMPH,WindSpeedGustMPH,Humidity,HourlyPrecipIn,Conditions,Clouds,dailyrainin,SoftwareType,DateUTC
2013-09-02 00:03:00,72.2,71.0,29.88,SSE,147,0.0,-999.0,97,-99.99,,,0.00,weatherlink.com 1.10,2013-09-02 04:03:00,
2013-09-02 00:18:00,72.2,71.0,29.88,SSE,147,0.0,-999.0,97,-99.99,,,0.00,weatherlink.com 1.10,2013-09-02 04:18:00,
2013-09-02 00:33:00,72.2,71.0,29.88,SSE,147,0.0,-999.0,96,-99.99,,,0.00,weatherlink.com 1.10,2013-09-02 04:33:00,
2013-09-02 00:48:00,72.2,71.0,29.87,SSE,147,0.0,-999.0,96,-99.99,,,0.00,weatherlink.com 1.10,2013-09-02 04:48:00,
2013-09-02 01:03:00,72.2,71.0,29.87,SSE,147,0.0,-999.0,96,-99.99,,,0.00,weatherlink.com 1.10,2013-09-02 05:03:00,
2013-09-02 01:18:00,72.2,71.0,29.86,ENE,59,0.0,-999.0,96,-99.99,,,0.00,weatherlink.com 1.10,2013-09-02 05:18:00,
2013-09-02 01:33:00,72.2,71.0,29.86,ENE,59,0.0,-999.0,96,-99.99,,,0.00,weatherlink.com 1.10,2013-09-02 05:33:00,
2013-09-02 01:48:00,72.2,71.0,29.85,East,80,0.0,-999.0,96,-99.99,,,0.00,weatherlink.com 1.10,2013-09-02 05:48:00,
2013-09-02 02:03:00,72.2,71.0,29.85,SE,141,0.0,-999.0,95,-99.99,,,0.00,weatherlink.com 1.10,2013-09-02 06:03:00,
2013-09-02 02:18:00,72.2,71.0,29.85,SE,135,0.0,-999.0,96,-99.99,,,0.00,weatherlink.com 1.10,2013-09-02 06:18:00,
2013-09-02 02:34:00,72.2,71.0,29.85,ESE,122,0.0,-999.0,95,-99.99,,,0.00,weatherlink.com 1.10,2013-09-02 06:34:00,
2013-09-02 02:49:00,72.1,71.0,29.85,SE,134,1.0,-999.0,95,-99.99,,,0.01,weatherlink.com 1.10,2013-09-02 06:49:00,
2013-09-02 03:04:00,71.8,71.0,29.85,ESE,110,0.0,-999.0,96,-99.99,,,0.02,weatherlink.com 1.10,2013-09-02 07:04:00,
2013-09-02 03:19:00,71.6,70.0,29.84,ESE,107,0.0,-999.0,96,-99.99,,,0.02,weatherlink.com 1.10,2013-09-02 07:19:00,
2013-09-02 03:34:00,71.4,71.0,29.83,ESE,108,0.0,-999.0,97,-99.99,,,0.02,weatherlink.com 1.10,2013-09-02 07:34:00,
2013-09-02 03:49:00,71.3,70.0,29.84,ESE,119,0.0,-999.0,97,-99.99,,,0.02,weatherlink.com 1.10,2013-09-02 07:49:00,
2013-09-02 04:04:00,71.3,70.0,29.84,ESE,119,0.0,-999.0,97,-99.99,,,0.02,weatherlink.com 1.10,2013-09-02 08:04:00,
2013-09-02 04:19:00,71.2,70.0,29.84,ESE,119,0.0,-999.0,97,-99.99,,,0.02,weatherlink.com 1.10,2013-09-02 08:19:00,
2013-09-02 04:34:00,71.1,70.0,29.83,ESE,119,0.0,-999.0,97,-99.99,,,0.02,weatherlink.com 1.10,2013-09-02 08:34:00,
2013-09-02 04:49:00,71.1,70.0,29.83,ESE,119,0.0,-999.0,97,-99.99,,,0.02,weatherlink.com 1.10,2013-09-02 08:49:00,
2013-09-02 05:04:00,71.0,70.0,29.82,ESE,119,0.0,-999.0,97,-99.99,,,0.02,weatherlink.com 1.10,2013-09-02 09:04:00,
2013-09-02 05:19:00,71.0,70.0,29.83,ESE,119,0.0,-999.0,97,-99.99,,,0.02,weatherlink.com 1.10,2013-09-02 09:19:00,
2013-09-02 05:34:00,71.1,71.0,29.84,East,84,0.0,-999.0,98,-99.99,,,0.02,weatherlink.com 1.10,2013-09-02 09:34:00,
2013-09-02 05:49:00,71.1,71.0,29.84,ENE,71,1.0,-999.0,98,-99.99,,,0.02,weatherlink.com 1.10,2013-09-02 09:49:00,
2013-09-02 06:04:00,71.2,71.0,29.84,ENE,72,0.0,-999.0,98,-99.99,,,0.02,weatherlink.com 1.10,2013-09-02 10:04:00,
2013-09-02 06:19:00,71.2,71.0,29.84,ENE,72,0.0,-999.0,98,-99.99,,,0.02,weatherlink.com 1.10,2013-09-02 10:19:00,
2013-09-02 06:34:00,71.3,71.0,29.84,East,80,0.0,-999.0,98,-99.99,,,0.02,weatherlink.com 1.10,2013-09-02 10:34:00,
2013-09-02 06:49:00,71.3,71.0,29.85,East,80,0.0,-999.0,98,-99.99,,,0.02,weatherlink.com 1.10,2013-09-02 10:49:00,
2013-09-02 07:04:00,71.3,71.0,29.85,ENE,71,0.0,-999.0,98,-99.99,,,0.02,weatherlink.com 1.10,2013-09-02 11:04:00,
2013-09-02 07:19:00,71.4,71.0,29.84,ENE,71,0.0,-999.0,98,-99.99,,,0.04,weatherlink.com 1.10,2013-09-02 11:19:00,
2013-09-02 07:34:00,71.5,71.0,29.84,ESE,104,0.0,-999.0,98,-99.99,,,0.04,weatherlink.com 1.10,2013-09-02 11:34:00,
2013-09-02 07:49:00,71.5,71.0,29.84,SW,223,0.0,-999.0,98,-99.99,,,0.04,weatherlink.com 1.10,2013-09-02 11:49:00,
2013-09-02 08:04:00,71.6,71.0,29.83,SE,127,0.0,-999.0,98,-99.99,,,0.04,weatherlink.com 1.10,2013-09-02 12:04:00,
2013-09-02 08:19:00,71.5,71.0,29.83,SW,217,0.0,-999.0,98,-99.99,,,0.04,weatherlink.com 1.10,2013-09-02 12:19:00,
2013-09-02 08:34:00,72.3,72.0,29.83,ESE,118,0.0,-999.0,98,-99.99,,,0.04,weatherlink.com 1.10,2013-09-02 12:34:00,
2013-09-02 08:49:00,73.1,72.0,29.82,SE,127,1.0,-999.0,97,-99.99,,,0.04,weatherlink.com 1.10,2013-09-02 12:49:00,
2013-09-02 09:04:00,74.0,73.0,29.82,ENE,57,0.0,-999.0,95,-99.99,,,0.04,weatherlink.com 1.10,2013-09-02 13:04:00,
2013-09-02 09:19:00,75.0,73.0,29.83,SW,232,0.0,-999.0,93,-99.99,,,0.04,weatherlink.com 1.10,2013-09-02 13:19:00,
2013-09-02 09:34:00,75.6,73.0,29.82,ENE,76,0.0,-999.0,92,-99.99,,,0.04,weatherlink.com 1.10,2013-09-02 13:34:00,
2013-09-02 09:49:00,76.0,73.0,29.83,SSE,165,0.0,-999.0,90,-99.99,,,0.04,weatherlink.com 1.10,2013-09-02 13:49:00,
2013-09-02 10:04:00,76.2,74.0,29.83,SSE,165,0.0,-999.0,91,-99.99,,,0.04,weatherlink.com 1.10,2013-09-02 14:04:00,
2013-09-02 10:19:00,75.7,73.0,29.83,SSE,165,0.0,-999.0,91,-99.99,,,0.04,weatherlink.com 1.10,2013-09-02 14:19:00,
2013-09-02 10:34:00,75.1,73.0,29.83,SSE,165,0.0,-999.0,93,-99.99,,,0.05,weatherlink.com 1.10,2013-09-02 14:34:00,
2013-09-02 10:49:00,74.4,73.0,29.83,SSE,165,0.0,-999.0,94,-99.99,,,0.08,weatherlink.com 1.10,2013-09-02 14:49:00,
2013-09-02 11:04:00,75.2,74.0,29.82,SSE,165,0.0,-999.0,96,-99.99,,,0.08,weatherlink.com 1.10,2013-09-02 15:04:00,
2013-09-02 11:19:00,75.8,74.0,29.82,East,80,0.0,-999.0,94,-99.99,,,0.08,weatherlink.com 1.10,2013-09-02 15:19:00,
2013-09-02 11:34:00,75.6,74.0,29.82,NNW,341,0.0,-999.0,93,-99.99,,,0.08,weatherlink.com 1.10,2013-09-02 15:34:00,
2013-09-02 11:49:00,75.1,73.0,29.81,ESE,107,0.0,-999.0,93,-99.99,,,0.08,weatherlink.com 1.10,2013-09-02 15:49:00,
2013-09-02 12:04:00,75.1,73.0,29.81,ENE,61,3.0,-999.0,92,-99.99,,,0.08,weatherlink.com 1.10,2013-09-02 16:04:00,
2013-09-02 12:19:00,75.3,73.0,29.81,ESE,117,1.0,-999.0,93,-99.99,,,0.08,weatherlink.com 1.10,2013-09-02 16:19:00,
2013-09-02 12:34:00,75.5,73.0,29.80,ENE,78,0.0,-999.0,92,-99.99,,,0.08,weatherlink.com 1.10,2013-09-02 16:34:00,
2013-09-02 12:49:00,76.1,73.0,29.80,East,81,3.0,-999.0,91,-99.99,,,0.08,weatherlink.com 1.10,2013-09-02 16:49:00,
2013-09-02 13:04:00,75.6,73.0,29.81,East,98,1.0,-999.0,92,-99.99,,,0.08,weatherlink.com 1.10,2013-09-02 17:04:00,
2013-09-02 13:19:00,75.8,74.0,29.79,SSE,149,0.0,-999.0,94,-99.99,,,0.08,weatherlink.com 1.10,2013-09-02 17:19:00,
2013-09-02 13:34:00,75.8,73.0,29.78,East,93,0.0,-999.0,92,-99.99,,,0.08,weatherlink.com 1.10,2013-09-02 17:34:00,
2013-09-02 13:49:00,75.9,74.0,29.78,SE,135,1.0,-999.0,92,-99.99,,,0.08,weatherlink.com 1.10,2013-09-02 17:49:00,
2013-09-02 14:04:00,76.0,74.0,29.78,ESE,103,2.0,-999.0,92,-99.99,,,0.08,weatherlink.com 1.10,2013-09-02 18:04:00,
2013-09-02 14:19:00,77.0,72.0,29.78,East,89,0.0,-999.0,84,-99.99,,,0.08,weatherlink.com 1.10,2013-09-02 18:19:00,
2013-09-02 14:34:00,77.6,73.0,29.78,SSW,212,0.0,-999.0,85,-99.99,,,0.08,weatherlink.com 1.10,2013-09-02 18:34:00,
2013-09-02 14:49:00,77.6,74.0,29.77,ESE,114,0.0,-999.0,87,-99.99,,,0.08,weatherlink.com 1.10,2013-09-02 18:49:00,
2013-09-02 15:04:00,78.3,74.0,29.77,ENE,71,1.0,-999.0,86,-99.99,,,0.08,weatherlink.com 1.10,2013-09-02 19:04:00,
2013-09-02 15:20:00,77.9,74.0,29.76,East,88,1.0,-999.0,87,-99.99,,,0.08,weatherlink.com 1.10,2013-09-02 19:20:00,
2013-09-02 15:35:00,77.8,74.0,29.76,ESE,110,0.0,-999.0,88,-99.99,,,0.08,weatherlink.com 1.10,2013-09-02 19:35:00,
2013-09-02 15:50:00,77.3,74.0,29.76,ENE,69,0.0,-999.0,90,-99.99,,,0.08,weatherlink.com 1.10,2013-09-02 19:50:00,
2013-09-02 16:05:00,77.4,74.0,29.76,ENE,69,0.0,-999.0,90,-99.99,,,0.08,weatherlink.com 1.10,2013-09-02 20:05:00,
2013-09-02 16:20:00,77.5,74.0,29.76,ESE,113,0.0,-999.0,90,-99.99,,,0.08,weatherlink.com 1.10,2013-09-02 20:20:00,
2013-09-02 16:35:00,77.6,75.0,29.74,ESE,112,0.0,-999.0,90,-99.99,,,0.08,weatherlink.com 1.10,2013-09-02 20:35:00,
2013-09-02 16:50:00,77.6,74.0,29.73,East,89,0.0,-999.0,89,-99.99,,,0.08,weatherlink.com 1.10,2013-09-02 20:50:00,
2013-09-02 17:05:00,77.7,74.0,29.74,ENE,64,1.0,-999.0,89,-99.99,,,0.08,weatherlink.com 1.10,2013-09-02 21:05:00,
2013-09-02 17:20:00,77.5,74.0,29.73,SE,146,0.0,-999.0,90,-99.99,,,0.08,weatherlink.com 1.10,2013-09-02 21:20:00,
2013-09-02 17:35:00,77.6,75.0,29.74,SSE,167,0.0,-999.0,91,-99.99,,,0.08,weatherlink.com 1.10,2013-09-02 21:35:00,
2013-09-02 17:50:00,77.6,75.0,29.73,South,173,0.0,-999.0,91,-99.99,,,0.08,weatherlink.com 1.10,2013-09-02 21:50:00,
2013-09-02 18:05:00,77.1,74.0,29.73,SSE,167,0.0,-999.0,91,-99.99,,,0.08,weatherlink.com 1.10,2013-09-02 22:05:00,
2013-09-02 18:20:00,76.6,74.0,29.73,SE,131,0.0,-999.0,92,-99.99,,,0.08,weatherlink.com 1.10,2013-09-02 22:20:00,
2013-09-02 18:35:00,76.2,74.0,29.72,SE,132,0.0,-999.0,92,-99.99,,,0.08,weatherlink.com 1.10,2013-09-02 22:35:00,
2013-09-02 18:50:00,75.9,74.0,29.73,SE,132,0.0,-999.0,93,-99.99,,,0.08,weatherlink.com 1.10,2013-09-02 22:50:00,
2013-09-02 19:05:00,75.6,74.0,29.73,SE,132,0.0,-999.0,93,-99.99,,,0.08,weatherlink.com 1.10,2013-09-02 23:05:00,
2013-09-02 19:20:00,75.1,73.0,29.73,SE,132,0.0,-999.0,93,-99.99,,,0.08,weatherlink.com 1.10,2013-09-02 23:20:00,
2013-09-02 19:35:00,74.6,73.0,29.74,SE,132,0.0,-999.0,94,-99.99,,,0.08,weatherlink.com 1.10,2013-09-02 23:35:00,
2013-09-02 19:50:00,74.0,73.0,29.74,SE,132,0.0,-999.0,95,-99.99,,,0.08,weatherlink.com 1.10,2013-09-02 23:50:00,
2013-09-02 20:05:00,73.4,72.0,29.74,SE,132,0.0,-999.0,94,-99.99,,,0.08,weatherlink.com 1.10,2013-09-03 00:05:00,
2013-09-02 20:20:00,73.1,72.0,29.74,SE,132,0.0,-999.0,95,-99.99,,,0.08,weatherlink.com 1.10,2013-09-03 00:20:00,
2013-09-02 20:35:00,72.9,71.0,29.74,SE,132,0.0,-999.0,95,-99.99,,,0.08,weatherlink.com 1.10,2013-09-03 00:35:00,
2013-09-02 20:50:00,72.7,71.0,29.74,SE,132,0.0,-999.0,95,-99.99,,,0.08,weatherlink.com 1.10,2013-09-03 00:50:00,
2013-09-02 21:05:00,72.6,71.0,29.74,SE,132,0.0,-999.0,95,-99.99,,,0.08,weatherlink.com 1.10,2013-09-03 01:05:00,
2013-09-02 21:20:00,72.3,71.0,29.74,SE,132,0.0,-999.0,96,-99.99,,,0.08,weatherlink.com 1.10,2013-09-03 01:20:00,
2013-09-02 21:35:00,72.0,71.0,29.74,SE,132,0.0,-999.0,96,-99.99,,,0.08,weatherlink.com 1.10,2013-09-03 01:35:00,
2013-09-02 21:50:00,71.8,71.0,29.75,SE,132,0.0,-999.0,96,-99.99,,,0.08,weatherlink.com 1.10,2013-09-03 01:50:00,
2013-09-02 22:05:00,71.7,71.0,29.76,SE,132,0.0,-999.0,96,-99.99,,,0.08,weatherlink.com 1.10,2013-09-03 02:05:00,
2013-09-02 22:20:00,71.3,70.0,29.75,SE,132,0.0,-999.0,96,-99.99,,,0.08,weatherlink.com 1.10,2013-09-03 02:20:00,
2013-09-02 22:35:00,71.3,70.0,29.75,SE,132,0.0,-999.0,97,-99.99,,,0.08,weatherlink.com 1.10,2013-09-03 02:35:00,
2013-09-02 22:50:00,71.3,70.0,29.75,SE,132,0.0,-999.0,97,-99.99,,,0.08,weatherlink.com 1.10,2013-09-03 02:50:00,
2013-09-02 23:05:00,71.2,70.0,29.75,SE,132,0.0,-999.0,97,-99.99,,,0.08,weatherlink.com 1.10,2013-09-03 03:05:00,
2013-09-02 23:20:00,71.1,70.0,29.76,SE,132,0.0,-999.0,97,-99.99,,,0.08,weatherlink.com 1.10,2013-09-03 03:20:00,
2013-09-02 23:35:00,71.1,70.0,29.77,SE,132,0.0,-999.0,97,-99.99,,,0.08,weatherlink.com 1.10,2013-09-03 03:35:00,
2013-09-02 23:50:00,70.8,70.0,29.76,SE,132,0.0,-999.0,97,-99.99,,,0.08,weatherlink.com 1.10,2013-09-03 03:50:00,